Location: Caltech
(34.1382°N, 118.1253°W)
Time: 12:16:47
(UTC-07:00)

Cosmos 1408 Rocket - Visible Passes

Search period start: 27 June 2017 00:00
Search period end: 07 July 2017 00:00
Orbit: 601 x 631 km, 82.6° (Epoch: 26 June)

Date Brightness Start Highest point End Pass type
(mag) Time Alt. Az. Time Alt. Az. Time Alt. Az.
27 Jun 3.7 21:47:39 14° SSW 21:51:21 69° W 21:55:39 10° N visible
28 Jun 5.1 22:03:57 10° SW 22:07:51 34° W 22:11:48 10° NNW visible
29 Jun 4.5 20:43:02 10° SSE 20:46:41 28° E 20:50:23 10° NNE visible
29 Jun 6.1 22:21:29 10° WSW 22:24:28 18° WNW 22:27:28 10° NNW visible
30 Jun 3.6 20:58:50 10° S 21:03:02 56° E 21:07:16 10° NNE visible
01 Jul 3.7 21:15:10 10° SSW 21:19:27 72° W 21:23:47 10° N visible
02 Jul 5.1 21:32:01 10° SSW 21:35:58 35° W 21:39:58 10° NNW visible
03 Jul 6.2 21:49:30 10° WSW 21:52:34 19° WNW 21:55:40 10° NNW visible
05 Jul 3.8 20:43:16 10° S 20:47:33 75° W 20:51:55 10° N visible
06 Jul 5.2 21:00:04 10° SSW 21:04:04 37° W 21:08:07 10° NNW visible
